Location: Bothwell
(42.3833°S, 147.0000°E)
Time: 03:45:42
(UTC+11:00)

MOZHAYETS 4 - Pass Details

Date: 03 October 2022
Orbit: 659 x 678 km, 98.2° (Epoch: 30 November)

Event Time Altitude Azimuth Distance (km) Brightness Sun altitude
Rises 05:44:20 0° 182° (S) 3,043 11.3 -11.4°
Reaches altitude 10° 05:47:04 10° 198° (SSW) 2,124 10.3 -10.9°
Maximum altitude 05:50:24 20° 244° (WSW) 1,562 9.2 -10.4°
Enters shadow 05:52:58 13° 283° (WNW) 1,915 9.4 -9.9°
